Location: Ay?beleni
(36.6500°N, 30.3000°E)
Time: 04:34:06
(UTC+00:00)

H-2A R/B - Pass Details

Date: 16 October 2021
Orbit: 528 x 650 km, 98.3° (Epoch: 08 December)

Event Time Altitude Azimuth Distance (km) Brightness Sun altitude
Rises 17:12:31 0° 185° (S) 2,943 6.0 -23.1°
Reaches altitude 10° 17:14:52 10° 193° (SSW) 2,029 5.3 -23.6°
Maximum altitude 17:18:58 37° 261° (W) 982 4.0 -24.4°
Drops below altitude 10° 17:23:01 10° 329° (NNW) 1,992 5.6 -25.2°
Sets 17:25:19 0° 338° (NNW) 2,883 6.4 -25.7°
